Location: Cargill Incorporated Elevator
(42.7294°N, 93.7333°W)
Time: 04:40:32
(UTC+00:00)

Cosmos 1633 Rocket - Pass Details

Date: 19 January 2026
Orbit: 600 x 616 km, 82.5° (Epoch: 14 February)

Event Time Altitude Azimuth Distance (km) Brightness Sun altitude
Rises 13:01:46 0° 215° (SW) 2,855 6.3 -7.3°
Reaches altitude 10° 13:04:15 10° 227° (SW) 1,953 5.4 -6.9°
Maximum altitude 13:07:55 27° 286° (WNW) 1,181 3.9 -6.2°
Drops below altitude 10° 13:11:36 10° 344° (NNW) 1,958 5.3 -5.6°
Sets 13:14:07 0° 357° (N) 2,864 6.2 -5.2°
